Current Weather Network in the world 
cooperate with our weather  network
  
 
country list  
Weather now
19-10-20  18:07
Arsago Seprio (VA)  (Italy)  
13.8  C.     3.6khm;

 

If you want to participate in our meteorological network, fill in form data, and send us an  e_mail and we will activate your weather station in your country. You would to send your weather reporting, one or more times a day, through our website .. for examples insert
       
manual meteorological reports today      
Weather reporting today :
Romania: stazione meteo: Amara
16:18
PAESE CITTA'DATAORAT C.(m)VENTO (Km/h)PAPREC.STATO
AustriaInnsbruck19-10-2014:20 UTC141.54 S1020
AustriaLinz19-10-2014:20 UTC121.54 ENE1023
AustriaVienna/Wien19-10-2014:20 UTC103.09 ESE1024
AustriaSalisburgo/Salzsbu19-10-2014:20 UTC122.57 NNE1021
Belarus/BielorussiaMinsk19-10-2014:00 UTC85 WSW1015
Belarus/BielorussiaRiga19-10-2014:20 UTC73.6 1010
BulgariaSofia19-10-2014:30 UTC140.51 1024
Belgium/BelgioBruxelles19-10-2014:20 UTC132.57 S1019
Croatia/CroaziaZagabria/Zagreb19-10-2014:00 UTC150 N1024
Croatia/CroaziaDubrovnik19-10-2014:00 UTC183.09 WSW1022
Croatia/CroaziaSpalato/Split19-10-2014:00 UTC194.63 SW1022
Croatia/CroaziaPula19-10-2014:00 UTC174.12 W1023
Croatia/CroaziaZara/Zadar19-10-2014:00 UTC184.63 WNW1023
Croazia/CroatiaFiume/Rijeka19-10-2014:00 UTC182.06 W1023
Czech RepublicPraga19-10-2014:00 UTC102.06 WSW1023
SlovakiaBratislava19-10-2014:00 UTC102.57 ESE1025pioggia
BosniaSarajevo19-10-2014:00 UTC141.03 1023
Denmark/DanimarcaAlborg19-10-2014:20 UTC103.09 WSW1017
Denmark/DanimarcaEsbjerg19-10-2014:20 UTC114.63 S1018
Denmark/DanimarcaCopenaghen/Koeben.19-10-2014:20 UTC116.17 W1018
Finland/FinlandiaHelsinky19-10-2015:50 UTC-23.09 NE1021
Finland/FinlandiaOulu19-10-2014:20 UTC25.66 NNE1008
France/FranciaParigi/Paris19-10-2014:00 UTC146.17 SSE1017
France/FranciaNizza/Nices19-10-2014:00 UTC182.06 SSE1023
France/FranciaTrasburgo19-10-2014:00 UTC153.09 S1021
France/FranciaMontepellier19-10-2014:00 UTC166.69 SE1021
France/FranciaLione/Lyon19-10-2014:00 UTC178.23 S1018
France/FranciaLilla19-10-2014:00 UTC155.66 SSE1017
France/FranciaBrest19-10-2014:00 UTC177.2 SE1006
France/FranciaBordeaux19-10-2014:00 UTC196.17 SE1012
France/FranciaMarsiglia/Marsei19-10-2014:00 UTC205.66 SSE1021
Germany/GermaniaAmburgo-fink19-10-2014:20 UTC113.09 SSW1020
Germany/GermaniaAmburgo-fuhl19-10-2014:20 UTC114.63 SW1020
Germany/GermaniaBerlin-sch19-10-2014:20 UTC111.54 WSW1022
Germany/GermaniaBerlino-tegel19-10-2014:20 UTC112.06 WSW1022
Germany/GermaniaMonaco19-10-2014:20 UTC113.09 E1022
Germany/GermaniaNonimberga19-10-2014:20 UTC112.06 E1022
Germany/GermaniaFrancoforte19-10-2014:20 UTC132.57 S1021
Germany/GermaniaStoccarda19-10-2014:20 UTC122.57 E1021
Germany/GermaniaHannover19-10-2014:20 UTC123.09 SSW1021
Germany/GermaniaDusseldorf19-10-2014:20 UTC131.03 1020
ISReykjavik19-10-2014:00 UTC71.54 WSW1022
Netherlands/Paesi baAmsterdam19-10-2014:25 UTC123.09 SSE1018
Netherlands/Paesi BaRotterdam19-10-2014:25 UTC134.12 SSE1018
Netherlands/Paesi BaGroninga/Groningen19-10-2014:25 UTC113.6 SSW1019
Netherlands/Paesi baMaastrich19-10-2014:25 UTC133.09 SSE1019
Norway-NorvegiaOslo19-10-2014:20 UTC71.54 NW1014
Norway-NorvegiaTrondheim19-10-2014:20 UTC55.66 W1015
Norway-NorvegiaBergen19-10-2014:20 UTC61.03 E1014
Norway-NorvegiaBodo19-10-2014:20 UTC14.63 E1015
Poland/PoloniaVarsavia/Warsawa19-10-2014:00 UTC106.17 WNW1021
Portugal-PortogalloLisbona/Lisboa19-10-2014:00 UTC189.26 S1010pioggia
Portugal-PortogalloFaro-airport19-10-2014:00 UTC225.14 SSE1014
Portugal-PortogalloPorto Santo19-10-2014:00 UTC234.63 W1012
Portugal-PortogalloPorto/Pedras Rubra19-10-2014:00 UTC2012.86 S1005pioggia
RUSMosca19-10-2014:00 UTC54 SW1010
Russian-RussiaSt.Peterburg19-10-2014:00 UTC32 SSW999
RusVladivostok19-10-2014:00 UTC32 E1023
RomaniaBucarest19-10-2014:00 UTC160.51 1025
Spain/SpagnaMadrid/Barajas19-10-2014:00 UTC220.51 1016
Spain/SpagnaMadrid/Cuatro19-10-2014:00 UTC232.06 1016
Spain/SpagnaBarcellona19-10-2014:00 UTC214.12 SSW1020
Spain/SpagnaLa Couruna19-10-2014:00 UTC174.12 SSE1004pioggia
Spain/SpagnaAlmeria19-10-2014:00 UTC256.17 ESE1018
Spain/SpagnaValencia19-10-2014:00 UTC224.12 SE1019
SpainIbiza19-10-2014:00 UTC234.12 E1020
Sweden-SveziaStockholm/Stoccolm19-10-2014:20 UTC56.69 WNW1012
Sweden-SveziaGoteborg19-10-2010:20 UTC-20 N1012
Sweden-SveziaMalmo19-10-2014:20 UTC94.12 WNW1018
Sweden-SveziaKiruna19-10-2014:20 UTC-21.54 N1014
Sweden-SveziaSundsvall19-10-2014:20 UTC37.2 NNW1012
Sweden-SveziaJongkoping19-10-2014:20 UTC72.06 WNW1015
Sweden-SveziaJongkoping19-10-2014:20 UTC72.06 WNW1015
Sweden-SveziaJongkoping19-10-2014:20 UTC72.06 WNW1015
Sweden-SveziaJongkoping19-10-2014:20 UTC72.06 WNW1015
Sweden-SveziaJongkoping19-10-2014:20 UTC72.06 WNW1015
Sweden-SveziaJongkoping19-10-2014:20 UTC72.06 WNW1015
Ukraine/UcrainaLvov/l'viv19-10-2014:00 UTC84 W1023
Ukraine/UcrainaKijev19-10-2014:00 UTC103 WNW1020
United KingdomBelfast-airport19-10-2014:20 UTC126.69 SSE1002pioggia
United KingdomBirmingham19-10-2014:20 UTC135.66 SSE1010
United KingdomEdimburgo/Edimburg19-10-2014:20 UTC126.69 SSW1005pioggia
United KingdomLeeds19-10-2014:20 UTC113.6 SSE1009
United KingdomLiverpool19-10-2014:20 UTC134.63 SE1008
United KingdomBristol19-10-2014:20 UTC126.17 SE1010
United KingdomPlymouth19-10-2015:20 UTC66.17 NW1018
GBLondra19-10-2014:20 UTC154.63 S1014
UngheriaBudapest19-10-2014:00 UTC111.03 1026
United KingdomManchester-airport19-10-2014:20 UTC122.57 SSE1009
yugoslaviaBelgrado/Beograd19-10-2014:00 UTC133.09 ENE1026
19-10-2014:20 UTC214.12 NW1021
 

 .

. .
. . . .

informazioni e contatti

www.meteorete.it
by.A.Santagostini C.2001-2016
P.I.05250380960

Partecipa alla rete meteorologica

  
 Cerca Meteo  
Stazioni meteo AM
Satellite e Radar
Rete in GooGle Maps
stazioni meteorete
Schermo solare Meteorete e Davis
stazioni automatiche
stazioni AM
rete internazionale
stazioni estere
archivio articoli
citta fredde

i nostri amici
negozio meteorete
dati storici stazioni
clima e riscaldamento globale
progetto meteo nelle scuole
temperatura Media in Italia 1951-2000
galleria di immagini
noleggio webcam
servizi meteo gratuiti
meteorologia per le scuole elementari